Location: Glücksbrunn
(50.8310°N, 10.3420°E)
Time: 06:43:36
(UTC+00:00)

Daily predictions for brighter satellites

Satellite Brightness Start Highest point End
(mag) Time Altitude Azimuth Time Altitude Azimuth Time Altitude Azimuth
SAR-Lupe-4 4.1 16:01:45 10° SE 16:05:02 35° ENE 16:08:22 10° N
Cosmos 2221 Rocket 3.6 16:01:05 10° N 16:05:37 85° E 16:10:04 10° S
YAOGAN 1 4.2 16:07:45 10° E 16:10:04 14° ENE 16:12:24 10° NNE
ATLAS 2AS CENTAUR R/B 3.8 16:05:40 10° NW 16:11:29 28° N 16:17:13 10° ENE
Cosmos 2061 Rocket 4.4 16:07:34 10° SSE 16:13:26 43° E 16:19:16 10° NNE
SJ-12 4.3 16:10:18 10° SE 16:13:48 36° ENE 16:17:19 10° N
Cosmos 1340 Rocket 3.4 16:13:31 10° SSW 16:17:19 58° WNW 16:21:08 10° N
ARIANE 6 FM1 Upper Stage 3.8 16:14:14 10° W 16:17:54 35° NNW 16:21:35 10° NE
ARIANE 5 R/B 2.5 16:14:22 10° SE 16:19:13 56° ENE 16:24:07 10° N
Cosmos 1725 Rocket 4.0 16:13:20 10° S 16:19:33 72° E 16:25:52 10° NNE
Cosmos 2233 Rocket 4.2 16:15:10 10° SSE 16:21:14 53° E 16:27:22 10° NNE
Cosmos 2058 4.3 16:20:59 10° NNE 16:23:37 17° ENE 16:26:14 10° ESE
Resurs 01 Rocket 3.6 16:26:28 10° NE 16:26:40 10° NE 16:27:17 10° NE
Cosmos 1441 Rocket 3.2 16:26:22 10° NNW 16:29:42 70° W 16:33:02 10° S
SMAP 3.0 16:25:16 10° SSE 16:29:55 78° ENE 16:34:36 10° NNW
Aureole 3 Rocket 4.1 16:28:31 10° ESE 16:29:49 13° E 16:29:49 13° E
Cosmos 2173 Rocket 4.4 16:23:57 10° SSW 16:30:07 67° WNW 16:36:15 10° N
SAR-Lupe-5 4.4 16:28:11 10° N 16:30:48 74° WNW 16:33:25 10° SSW
Cosmos 1484 Rocket 4.3 16:31:58 10° SSW 16:35:13 36° W 16:38:31 10° NNW
USA 215 3.9 16:29:52 10° SE 16:36:18 60° SW 16:42:47 10° WNW
Cosmos 2227 Rocket 4.4 16:34:32 10° NW 16:36:41 12° NNW 16:38:51 10° N
CORIOLIS 4.2 16:32:05 10° SSE 16:37:28 86° WSW 16:42:51 10° NNW
Cosmos 2082 Rocket 2.8 16:33:59 10° NNW 16:39:08 35° NE 16:44:15 10° ESE
Cosmos 1812 4.1 16:38:36 10° ESE 16:39:11 12° ESE 16:39:11 12° ESE
SL-08 R/B 4.4 16:34:31 10° S 16:40:37 82° E 16:46:43 10° NNE
Cosmos 1802 Rocket 4.3 16:35:40 10° SSW 16:42:05 76° W 16:48:32 10° N
Cosmos 1869 3.9 16:39:18 10° SSE 16:42:21 28° E 16:45:12 11° NNE
Landsat 7 3.7 16:38:22 10° SSE 16:43:00 75° ENE 16:47:40 10° N
AQUARIUS 4.1 16:38:43 10° SSE 16:43:04 62° ENE 16:47:26 10° N
SPOT 1/Viking Rocket 3.9 16:39:17 10° SE 16:44:06 41° ENE 16:48:57 10° N
Cosmos 1782 Rocket 3.5 16:40:47 10° S 16:45:13 75° E 16:49:39 10° NNE
Cosmos 2278 Rocket 3.1 16:40:35 10° SSE 16:45:19 28° ESE 16:49:10 14° NE
Cosmos 1943 Rocket 3.0 16:41:27 10° SSE 16:46:15 30° ESE 16:50:08 14° NE
Cosmos 2084 Rocket 3.3 16:43:16 10° SW 16:47:26 74° SE 16:50:44 16° NE
Cosmos 407 Rocket 4.1 16:42:48 10° SSE 16:47:27 35° ESE 16:51:44 12° NE
Cosmos 2344 4.1 16:41:41 10° NW 16:48:45 43° NNE 16:56:03 15° E
Timation 1 Rocket 4.4 16:43:15 10° NNW 16:49:10 60° NE 16:55:03 10° SE
IRS-1C 4.2 16:44:37 10° SSE 16:49:57 86° WSW 16:55:20 10° NNW
Cosmos 1300 Rocket 3.6 16:48:28 10° S 16:52:52 84° W 16:57:17 10° N
ATLAS 5 CENTAUR R/B 2.4 16:50:50 10° NW 16:55:04 59° SW 17:00:18 10° SSE
Tsikada Rocket 4.3 16:51:21 10° NNW 16:57:47 75° W 17:04:08 10° S
ATLAS CENTAUR R/B 2.5 16:55:49 10° W 16:58:52 28° NW 17:01:34 12° NNE
BREEZE-M DEB (TANK) 3.3 16:59:34 10° SW 17:01:55 42° SE 17:04:22 22° E
Cosmos 1975 Rocket 3.1 16:57:53 10° NNW 17:02:14 82° W 17:06:36 10° S
SL-16 R/B 3.4 16:57:28 10° N 17:03:30 51° WNW 17:09:30 10° SW
Spot 4 Rocket 4.1 16:58:52 10° SE 17:03:46 50° ENE 17:08:43 10° N
COSMOS 2406 3.9 17:00:43 10° NNW 17:05:50 33° NE 17:08:32 22° E
MOS 1 Rocket 3.0 17:02:21 10° SSE 17:06:38 76° ENE 17:11:08 10° N
Cosmos 2263 Rocket 4.5 17:06:27 10° NW 17:08:29 12° NNW 17:10:32 10° N
UNK 4.3 17:05:13 10° N 17:09:47 59° WNW 17:14:18 10° SSW
Cosmos 921 Rocket 4.5 17:06:44 10° SW 17:10:48 37° WNW 17:14:56 10° N
COSMO-SKYMED 1 3.1 17:10:37 27° ENE 17:11:42 32° E 17:15:24 10° SSE
SKYMED 2 3.8 17:08:26 10° NNE 17:12:40 46° E 17:16:50 10° S
USA 281 3.9 17:09:14 20° E 17:12:46 34° NE 17:18:32 10° NNW
BREEZE-M DEB (TANK) 2.8 17:12:37 10° SW 17:15:08 47° SSE 17:17:12 27° E
ISS -2.5 17:13:19 10° SSW 17:16:12 27° SSE 17:16:32 26° SE
CZ-4 R/B 4.2 17:12:55 10° SSE 17:16:53 79° ENE 17:20:52 10° NNW
CZ-2D R/B 4.4 17:14:21 10° SSW 17:17:18 36° W 17:20:16 10° NNW
Cosmos 1763 Rocket 3.5 17:12:08 10° NNW 17:17:24 84° WSW 17:22:34 10° SSE
Cosmos 540 Rocket 3.4 17:12:53 10° NNW 17:18:03 86° ENE 17:23:11 10° SSE
Meteor 2-3 Rocket 4.4 17:14:01 10° N 17:19:05 31° ENE 17:20:44 27° E
CZ-4C R/B 3.3 17:15:25 10° W 17:19:49 34° NNW 17:24:06 15° NE
Cosmos 1833 Rocket 4.2 17:15:48 10° NW 17:20:59 38° WSW 17:26:08 10° S
Cosmos 1140 Rocket 3.8 17:19:57 10° SSW 17:25:07 68° WNW 17:30:17 10° NNE
Cosmos 1269 Rocket 4.5 17:20:25 10° SW 17:25:36 61° WNW 17:30:52 10° NNE
Helios 1A Rocket 3.3 17:28:22 33° SE 17:28:22 33° SE 17:30:38 10° S
NOAA 6 4.1 17:24:32 10° SE 17:29:33 55° ENE 17:34:34 10° N
Cosmos 1602 3.2 17:27:54 10° N 17:30:33 61° NNE 17:30:33 61° NNE
RESURS DK-1 2.5 17:27:22 10° NW 17:31:22 69° WSW 17:35:20 10° SSE
SL-12 R/B(2) 4.3 17:23:42 10° SSW 17:31:38 69° SE 17:39:17 18° NE
Nadezhda 4 Rocket 3.9 17:25:58 10° N 17:32:14 62° ENE 17:38:24 10° SSE
Cosmos 2251 Rocket 3.6 17:33:03 10° S 17:38:08 51° ESE 17:39:54 36° NE
Cosmos 1862 3.3 17:35:42 10° N 17:38:34 49° NNE 17:38:34 49° NNE
Geosat 3.8 17:41:31 23° SE 17:44:42 79° NE 17:49:43 10° NNW
YAOGAN 1 2.5 17:41:04 10° SSE 17:45:20 84° WSW 17:49:38 10° NNW
PSLV R/B 3.3 17:42:09 10° SSE 17:46:13 83° WSW 17:50:16 10° NNW
Timation 2 Rocket 4.1 17:43:20 10° SSW 17:50:13 86° ESE 17:55:09 21° NNE
Resurs 1-3 3.6 17:47:57 10° S 17:52:15 78° WSW 17:56:35 10° NNW
CZ-2D R/B 4.3 17:49:06 10° S 17:53:08 52° W 17:57:15 10° NNW
Cosmos 1428 Rocket 4.4 17:47:29 10° N 17:53:46 73° ENE 18:00:03 10° SSE
Cosmos 841 Rocket 3.4 17:49:42 10° NNW 17:54:56 61° ENE 17:55:38 55° E
Cosmos 489 Rocket 4.3 17:49:55 10° NNW 17:56:14 79° ENE 18:00:29 22° SSE
SJ 16-02 2.7 17:55:42 10° S 17:57:46 26° S 17:57:46 26° S
Okean 2 Rocket 3.8 17:55:41 10° S 17:58:32 39° SSE 17:58:32 39° SSE
Cosmos 2058 3.5 17:56:12 10° NNW 18:00:06 54° W 18:03:58 10° S
Resurs 01 Rocket 2.6 18:03:53 34° N 18:03:53 34° N 18:06:32 10° N
Cosmos 1536 Rocket 3.7 17:59:30 10° NNW 18:03:56 72° W 18:08:20 10° S
ATLAS 2AS CENTAUR R/B 3.0 17:57:32 10° NW 18:04:03 44° NNE 18:05:02 42° NE
Cosmos 468 Rocket 4.4 18:01:49 10° NNW 18:06:58 60° WSW 18:12:02 10° S
Cosmos 44 Rocket 3.1 18:02:24 10° SSW 18:07:11 78° SE 18:07:12 78° SE
Cosmos 1190 Rocket 3.9 18:10:05 10° SSW 18:15:23 85° ESE 18:15:50 75° NE
Aureole 3 Rocket 4.3 18:13:49 10° SW 18:16:00 27° W 18:16:00 27° W
Cosmos 1464 Rocket 4.1 18:13:03 10° SSW 18:19:20 74° W 18:25:36 10° N
Cosmos 2082 Rocket 2.9 18:17:59 10° NW 18:23:26 52° WSW 18:27:17 19° S
Cosmos 2278 Rocket 2.6 18:23:29 10° SW 18:29:03 58° NW 18:31:01 38° N
Cosmos 1954 Rocket 4.2 18:24:09 10° SSW 18:28:34 64° SSW 18:28:34 64° SSW
Cosmos 1943 Rocket 2.7 18:24:12 10° SW 18:29:42 55° NW 18:31:40 37° N
Cosmos 2034 Rocket 3.9 18:24:53 10° S 18:31:05 87° WNW 18:37:24 10° N
Cosmos 1092 Rocket 4.0 18:40:32 10° NNW 18:46:50 80° W 18:47:14 75° SW
COSMO-SKYMED 1 4.2 18:46:58 30° WNW 18:46:59 30° WNW 18:50:36 10° SW
COSMOS 2406 3.6 18:44:52 10° NW 18:50:27 58° WSW 18:50:36 58° WSW
ISS -0.3 18:49:21 10° WSW 18:49:28 11° WSW 18:49:28 11° WSW
Cosmos 2026 Rocket 4.3 18:50:13 10° NNW 18:56:12 61° W 18:57:33 49° SW
USA 281 3.3 18:56:07 66° SSW 18:56:52 72° WSW 19:03:28 10° NNW
Meteor 2-3 Rocket 4.5 18:57:01 10° NNW 19:02:31 49° W 19:03:03 48° WSW
Cosmos 2344 3.9 18:55:59 10° NW 19:03:53 77° SW 19:06:06 57° SSE
CZ-4C R/B 4.0 19:05:10 10° NW 19:09:03 25° N 19:09:03 25° N
ATLAS 2AS CENTAUR R/B 3.9 19:48:36 10° NW 19:52:28 36° WNW 19:52:28 36° WNW
